User: anonymous   Login
Location: Bellerive
(46.9237°N, 7.0223°E)
Time: 02:39:09
(UTC+00:00)
Language:

Cosmos 1437 - Orbit

View from above orbital plane
View from above orbital plane
View from above satellite
View from above satellite

Ground track
Ground track

The orbit data is extracted from the following two-line orbital elements,

1 13770U 83003A   20192.49564802 +.00005099 +00000-0 +51555-4 0  9992
2 13770 081.1569 200.2172 0002743 181.7838 178.3408 15.65031573060537
Epoch (UTC): 10 July 2020 11:53:43
Eccentricity: 0.0002743
inclination: 81.1569°
perigee height: 371 km
apogee height: 375 km
right ascension of ascending node: 200.2172°
argument of perigee: 181.7838°
revolutions per day: 15.65031573
mean anomaly at epoch: 178.3408°
orbit number at epoch: 6053

The dashed part of the orbit path shows where the satellite is in the earth's shadow,  

DLR